Location: ??????
(38.3184°N, 23.6932°E)
Time: 02:46:39
(UTC+00:00)

Cosmos 1269 Rocket - Pass Details

Date: 16 October 2021
Orbit: 773 x 778 km, 74.1° (Epoch: 04 December)

Event Time Altitude Azimuth Distance (km) Brightness Sun altitude
Rises 17:25:35 0° 346° (NNW) 3,264 7.5 -20.3°
Reaches altitude 10° 17:28:02 10° 350° (N) 2,332 6.7 -20.8°
Maximum altitude 17:33:14 56° 69° (ENE) 919 4.0 -21.8°
Enters shadow 17:34:01 51° 103° (ESE) 973 4.1 -22.0°
